Location: Middlebury
(44.0153°N, 73.1678°W)
Time: 08:53:39
(UTC-04:00)

UWE-3 - Pass Details

Date: 25 June 2024
Orbit: 566 x 652 km, 97.8° (Epoch: 12 July)

Event Time Altitude Azimuth Distance (km) Brightness Sun altitude
Rises 04:26:03 0° 360° (N) 2,866 ? -7.2°
Reaches altitude 10° 04:28:36 10° 345° (NNW) 1,942 ? -6.8°
Maximum altitude 04:31:51 22° 294° (WNW) 1,297 ? -6.4°
Drops below altitude 10° 04:35:03 10° 243° (WSW) 1,895 ? -6.0°
Enters shadow 04:35:45 - 237° (WSW) 2,131 ? -5.9°
